CW9825 Weather Reports


Display with metric or nautical units.
time (UTC)temp
F
wind
direction
speed
MPH
gust
MPH
rain 1hr
in
rain 24hr
in
rain mn
in
humidity
%
barometer
mb
20260901230059 80 276 5.0 10.0 0.00 0.00 0.00 46 1013.4
20260901225559 80 281 4.0 10.0 0.00 0.00 0.00 46 1013.5
20260901225058 80 260 3.0 10.0 0.00 0.00 0.00 46 1013.4
20260901224605 80 286 3.0 11.0 0.00 0.00 0.00 46 1013.5
20260901224059 80 271 4.0 10.0 0.00 0.00 0.00 45 1013.5
20260901223558 80 286 4.0 11.0 0.00 0.00 0.00 47 1013.6
20260901223059 81 317 5.0 11.0 0.00 0.00 0.00 45 1013.5
20260901222558 81 265 3.0 11.0 0.00 0.00 0.00 46 1013.5
20260901222058 81 315 4.0 11.0 0.00 0.00 0.00 45 1013.7
20260901221607 81 286 4.0 10.0 0.00 0.00 0.00 45 1013.7
20260901221058 80 273 3.0 10.0 0.00 0.00 0.00 45 1013.9
20260901220556 80 300 4.0 12.0 0.00 0.00 0.00 45 1013.8
20260901220056 80 267 5.0 12.0 0.00 0.00 0.00 44 1013.8
20260901215558 80 276 4.0 12.0 0.00 0.00 0.00 44 1013.9
20260901215056 81 257 2.0 12.0 0.00 0.00 0.00 44 1013.7
20260901214557 80 262 6.0 12.0 0.00 0.00 0.00 43 1013.6
20260901214056 80 273 6.0 12.0 0.00 0.00 0.00 43 1013.5
20260901213600 80 240 4.0 10.0 0.00 0.00 0.00 44 1013.5
20260901213059 80 273 3.0 11.0 0.00 0.00 0.00 45 1013.5
20260901212558 80 267 6.0 11.0 0.00 0.00 0.00 45 1013.5
20260901212056 80 276 3.0 11.0 0.00 0.00 0.00 44 1013.5
20260901211556 81 290 4.0 10.0 0.00 0.00 0.00 44 1013.6
20260901211055 81 250 3.0 10.0 0.00 0.00 0.00 44 1013.6
20260901210558 81 299 4.0 11.0 0.00 0.00 0.00 43 1013.6
20260901210122 81 255 6.0 11.0 0.00 0.00 0.00 43 1013.7
20260901205554 81 289 2.0 10.0 0.00 0.00 0.00 43 1013.7
20260901205054 81 238 6.0 10.0 0.00 0.00 0.00 43 1013.6
20260901204553 82 228 5.0 12.0 0.00 0.00 0.00 41 1013.5
20260901204053 82 262 4.0 12.0 0.00 0.00 0.00 42 1013.5
20260901203554 82 261 4.0 12.0 0.00 0.00 0.00 42 1013.6
20260901203054 82 303 6.0 14.0 0.00 0.00 0.00 41 1013.5
20260901202554 82 257 2.0 14.0 0.00 0.00 0.00 42 1013.6
20260901202056 82 310 6.0 15.0 0.00 0.00 0.00 42 1013.5
20260901201554 83 307 4.0 15.0 0.00 0.00 0.00 43 1013.5
20260901201054 83 335 2.0 10.0 0.00 0.00 0.00 43 1013.5
20260901200554 83 303 2.0 9.0 0.00 0.00 0.00 44 1013.4
20260901200052 83 291 2.0 9.0 0.00 0.00 0.00 43 1013.4
20260901195552 83 226 2.0 11.0 0.00 0.00 0.00 45 1013.4
20260901195051 82 257 4.0 11.0 0.00 0.00 0.00 44 1013.6
20260901194602 82 237 3.0 12.0 0.00 0.00 0.00 45 1013.5
20260901194051 82 269 2.0 12.0 0.00 0.00 0.00 44 1013.7
20260901193555 82 276 3.0 11.0 0.00 0.00 0.00 46 1013.7
20260901193053 82 269 2.0 11.0 0.00 0.00 0.00 45 1013.8
20260901192551 82 255 2.0 11.0 0.00 0.00 0.00 45 1013.9
20260901192051 81 279 6.0 13.0 0.00 0.00 0.00 45 1013.9
20260901191600 82 269 1.0 10.0 0.00 0.00 0.00 47 1014.0
20260901191051 82 211 3.0 9.0 0.00 0.00 0.00 46 1014.1
20260901190549 82 306 3.0 9.0 0.00 0.00 0.00 45 1014.0
20260901190115 82 288 5.0 15.0 0.00 0.00 0.00 45 1014.0
20260901185549 82 243 6.0 15.0 0.00 0.00 0.00 43 1014.0
20260901185049 82 293 4.0 15.0 0.00 0.00 0.00 43 1014.0
20260901184549 83 288 4.0 16.0 0.00 0.00 0.00 42 1014.0
20260901184049 83 251 8.0 16.0 0.00 0.00 0.00 42 1014.0
20260901183548 84 276 5.0 12.0 0.00 0.00 0.00 42 1014.0
20260901183047 83 288 3.0 11.0 0.00 0.00 0.00 44 1014.0
20260901182545 83 244 4.0 11.0 0.00 0.00 0.00 43 1014.1
20260901182045 83 307 5.0 11.0 0.00 0.00 0.00 48 1014.2
20260901181544 82 259 2.0 9.0 0.00 0.00 0.00 46 1014.3
20260901181042 82 309 4.0 10.0 0.00 0.00 0.00 46 1014.3
20260901180541 82 304 5.0 14.0 0.00 0.00 0.00 47 1014.4
20260901180039 81 281 10.0 14.0 0.00 0.00 0.00 46 1014.5
20260901175537 81 279 4.0 14.0 0.00 0.00 0.00 46 1014.5
20260901175037 81 267 5.0 12.0 0.00 0.00 0.00 46 1014.6
20260901174547 81 232 4.0 14.0 0.00 0.00 0.00 48 1014.6
20260901174038 81 290 7.0 15.0 0.00 0.00 0.00 47 1014.6
20260901173536 81 17 5.0 15.0 0.00 0.00 0.00 47 1014.7
20260901173036 81 348 5.0 12.0 0.00 0.00 0.00 46 1014.7
20260901172535 81 279 4.0 11.0 0.00 0.00 0.00 47 1014.7
20260901172035 81 305 2.0 10.0 0.00 0.00 0.00 48 1014.6
20260901171533 80 310 3.0 10.0 0.00 0.00 0.00 47 1014.7
20260901171033 80 286 5.0 11.0 0.00 0.00 0.00 48 1014.7
20260901170535 80 305 5.0 14.0 0.00 0.00 0.00 47 1014.8
20260901170031 80 287 5.0 12.0 0.00 0.00 0.00 47 1014.7
20260901165535 80 250 6.0 11.0 0.00 0.00 0.00 48 1014.8
20260901165032 80 270 2.0 7.0 0.00 0.00 0.00 50 1014.7
20260901164533 80 215 3.0 10.0 0.00 0.00 0.00 48 1014.8
20260901164030 80 265 1.0 10.0 0.00 0.00 0.00 51 1014.9
20260901163528 80 305 3.0 7.0 0.00 0.00 0.00 51 1015.0
20260901163050 79 274 1.0 8.0 0.00 0.00 0.00 53 1015.0
20260901162525 79 272 4.0 9.0 0.00 0.00 0.00 52 1015.0
20260901162025 79 238 1.0 7.0 0.00 0.00 0.00 54 1014.9
20260901161524 79 337 2.0 8.0 0.00 0.00 0.00 55 1014.9
20260901161023 78 290 2.0 7.0 0.00 0.00 0.00 55 1014.9
20260901160521 78 229 3.0 5.0 0.00 0.00 0.00 56 1014.8
20260901160020 78 298 0.0 6.0 0.00 0.00 0.00 58 1014.7
20260901155519 77 273 1.0 6.0 0.00 0.00 0.00 56 1014.8
20260901155018 77 313 1.0 5.0 0.00 0.00 0.00 59 1014.7
20260901154532 77 284 1.0 7.0 0.00 0.00 0.00 60 1014.8
20260901154015 76 275 2.0 7.0 0.00 0.00 0.00 61 1015.0
20260901153514 75 285 1.0 8.0 0.00 0.00 0.00 61 1015.0
20260901153022 75 311 3.0 8.0 0.00 0.00 0.00 59 1015.1
20260901152510 75 273 2.0 6.0 0.00 0.00 0.00 61 1015.0
20260901152009 74 289 1.0 5.0 0.00 0.00 0.00 63 1014.9
20260901151511 74 281 2.0 4.0 0.00 0.00 0.00 64 1015.0
20260901151007 74 194 1.0 5.0 0.00 0.00 0.00 62 1015.0
20260901150505 73 280 2.0 5.0 0.00 0.00 0.00 65 1015.1
20260901150003 72 285 0.0 6.0 0.00 0.00 0.00 65 1015.1
20260901145500 72 258 1.0 5.0 0.00 0.00 0.00 64 1015.1
20260901145059 71 293 2.0 6.0 0.00 0.00 0.00 65 1015.2
20260901144601 71 254 2.0 7.0 0.00 0.00 0.00 66 1015.2
20260901144101 70 287 0.0 7.0 0.00 0.00 0.00 67 1015.1
20260901143556 69 266 2.0 5.0 0.00 0.00 0.00 67 1015.1
20260901143055 68 229 2.0 6.0 0.00 0.00 0.00 70 1015.2
20260901142554 67 249 1.0 4.0 0.00 0.00 0.00 72 1015.3
20260901142052 66 240 1.0 7.0 0.00 0.00 0.00 73 1015.3
20260901141551 65 291 2.0 7.0 0.00 0.00 0.00 75 1015.2
20260901141050 64 296 1.0 6.0 0.00 0.00 0.00 75 1015.3
20260901140548 63 269 2.0 6.0 0.00 0.00 0.00 76 1015.3
20260901140058 63 251 0.0 3.0 0.00 0.00 0.00 78 1015.2
20260901135549 62 251 1.0 5.0 0.00 0.00 0.00 77 1015.3
20260901135049 61 261 1.0 5.0 0.00 0.00 0.00 78 1015.3
20260901134559 61 243 1.0 5.0 0.00 0.00 0.00 79 1015.4
20260901134048 61 234 2.0 6.0 0.00 0.00 0.00 79 1015.3
20260901133547 60 213 3.0 7.0 0.00 0.00 0.00 79 1015.4
20260901133100 60 190 3.0 8.0 0.00 0.00 0.00 79 1015.4
20260901132550 60 206 3.0 7.0 0.00 0.00 0.00 80 1015.3
20260901132047 60 219 1.0 7.0 0.00 0.00 0.00 81 1015.2
20260901131551 59 200 2.0 5.0 0.00 0.00 0.00 82 1015.2
20260901131047 59 207 2.0 6.0 0.00 0.00 0.00 82 1015.1
20260901130544 59 203 1.0 6.0 0.00 0.00 0.00 82 1015.1
20260901130044 59 191 1.0 6.0 0.00 0.00 0.00 81 1015.1
20260901125543 59 211 2.0 6.0 0.00 0.00 0.00 80 1015.0
20260901125043 59 167 1.0 6.0 0.00 0.00 0.00 80 1015.0
20260901124542 59 197 2.0 7.0 0.00 0.00 0.00 80 1014.9
20260901124041 59 185 4.0 7.0 0.00 0.00 0.00 81 1014.7
20260901123539 59 207 1.0 2.0 0.00 0.00 0.00 81 1014.7
20260901123041 59 207 0.0 3.0 0.00 0.00 0.00 80 1014.6
20260901122538 59 209 1.0 3.0 0.00 0.00 0.00 79 1014.5
20260901122037 60 229 0.0 2.0 0.00 0.00 0.00 79 1014.3
20260901121545 60 229 0.0 3.0 0.00 0.00 0.00 79 1014.3
20260901121037 59 230 1.0 3.0 0.00 0.00 0.00 79 1014.3
20260901120536 59 259 1.0 3.0 0.00 0.00 0.00 79 1014.2
20260901120038 59 277 0.0 3.0 0.00 0.00 0.00 79 1014.2
20260901115537 59 277 1.0 4.0 0.00 0.00 0.00 79 1014.1
20260901115034 59 277 2.0 4.0 0.00 0.00 0.00 79 1014.1
20260901114534 60 271 1.0 4.0 0.00 0.00 0.00 78 1014.1
20260901114033 60 269 0.0 3.0 0.00 0.00 0.00 78 1014.1
20260901113533 60 251 0.0 3.0 0.00 0.00 0.00 78 1014.1
20260901113033 60 259 1.0 6.0 0.00 0.00 0.00 78 1014.1
20260901112531 60 261 2.0 6.0 0.00 0.00 0.00 78 1013.9
20260901112031 60 285 3.0 6.0 0.00 0.00 0.00 78 1013.7
20260901111531 60 274 3.0 6.0 0.00 0.00 0.00 79 1013.7
20260901111033 59 276 3.0 6.0 0.00 0.00 0.00 79 1013.8
20260901110529 59 264 2.0 4.0 0.00 0.00 0.00 79 1013.6
20260901110030 59 263 2.0 4.0 0.00 0.00 0.00 79 1013.9
20260901105530 59 269 0.0 4.0 0.00 0.00 0.00 79 1013.8
20260901105128 59 269 0.0 4.0 0.00 0.00 0.00 79 1013.7
20260901104537 59 254 2.0 4.0 0.00 0.00 0.00 79 1013.5
20260901104030 59 250 0.0 3.0 0.00 0.00 0.00 79 1013.5
20260901103528 59 250 0.0 2.0 0.00 0.00 0.00 79 1013.5
20260901103033 59 250 0.0 2.0 0.00 0.00 0.00 79 1013.5
20260901102527 59 250 0.0 1.0 0.00 0.00 0.00 79 1013.6
20260901102026 59 250 0.0 1.0 0.00 0.00 0.00 78 1013.4
20260901101525 59 250 0.0 2.0 0.00 0.00 0.00 78 1013.5
20260901101025 59 250 0.0 2.0 0.00 0.00 0.00 78 1013.4
20260901100524 59 250 1.0 2.0 0.00 0.00 0.00 77 1013.3
20260901100023 60 250 0.0 1.0 0.00 0.00 0.00 77 1013.3
20260901095522 60 250 0.0 1.0 0.00 0.00 0.00 77 1013.3
20260901095022 60 250 0.0 2.0 0.00 0.00 0.00 76 1013.3
20260901094523 60 250 0.0 2.0 0.00 0.00 0.00 76 1013.4
20260901094021 60 250 0.0 0.0 0.00 0.00 0.00 76 1013.3
20260901093520 61 250 0.0 0.0 0.00 0.00 0.00 75 1013.2
20260901093020 61 250 0.0 0.0 0.00 0.00 0.00 75 1013.2
20260901092519 61 250 0.0 0.0 0.00 0.00 0.00 74 1013.2
20260901092018 61 250 0.0 0.0 0.00 0.00 0.00 74 1013.1
20260901091518 61 250 0.0 1.0 0.00 0.00 0.00 73 1013.2
20260901091017 62 250 0.0 3.0 0.00 0.00 0.00 73 1013.2
20260901090516 62 250 0.0 3.0 0.00 0.00 0.00 73 1013.2
20260901090025 62 249 0.0 0.0 0.00 0.00 0.00 73 1013.2
20260901085515 62 249 0.0 0.0 0.00 0.01 0.00 72 1013.2
20260901085014 62 249 0.0 0.0 0.00 0.01 0.00 72 1013.2
20260901084514 62 249 0.0 0.0 0.00 0.01 0.00 72 1013.2
20260901084013 63 249 0.0 2.0 0.00 0.01 0.00 71 1013.1
20260901083513 63 249 0.0 2.0 0.00 0.01 0.00 71 1013.0
20260901083013 63 259 0.0 3.0 0.00 0.01 0.00 71 1013.1
20260901082512 63 259 1.0 3.0 0.00 0.01 0.00 71 1013.0
20260901082011 63 259 1.0 3.0 0.00 0.01 0.00 70 1013.0
20260901081511 63 259 0.0 3.0 0.00 0.01 0.00 70 1013.0
20260901081010 64 259 0.0 3.0 0.00 0.01 0.00 70 1013.0
20260901080510 64 258 0.0 4.0 0.00 0.01 0.00 69 1013.0
20260901080014 64 257 1.0 6.0 0.00 0.01 0.00 69 1013.1
20260901075508 64 277 3.0 6.0 0.00 0.01 0.00 68 1013.1
20260901075007 64 281 3.0 6.0 0.00 0.01 0.00 68 1013.2
20260901074507 65 248 1.0 4.0 0.00 0.01 0.00 68 1013.1
20260901074006 65 246 0.0 3.0 0.00 0.01 0.00 67 1013.1
20260901073505 65 247 0.0 4.0 0.00 0.01 0.00 67 1013.1
20260901073016 65 260 1.0 6.0 0.00 0.01 0.00 67 1013.1
20260901072504 65 237 2.0 7.0 0.00 0.01 0.00 66 1013.2
20260901072004 66 273 2.0 7.0 0.00 0.01 0.00 66 1013.3
20260901071502 66 277 2.0 4.0 0.00 0.01 0.00 66 1013.3
20260901071003 66 275 2.0 7.0 0.00 0.01 0.00 65 1013.3
20260901070501 66 248 2.0 7.0 0.00 0.01 0.00 65 1013.3
20260901070001 66 277 3.0 7.0 0.00 0.01 0.00 65 1013.4
20260901065501 67 253 3.0 8.0 0.00 0.01 0.00 65 1013.3
20260901065001 67 264 3.0 8.0 0.00 0.01 0.00 64 1013.4
20260901064502 67 238 4.0 7.0 0.00 0.01 0.00 64 1013.4
20260901064002 67 275 3.0 7.0 0.00 0.01 0.00 64 1013.4
20260901063501 68 263 3.0 8.0 0.00 0.01 0.00 64 1013.3
20260901063132 68 279 2.0 9.0 0.00 0.01 0.00 64 1013.4
20260901062559 68 302 4.0 9.0 0.00 0.01 0.00 64 1013.3
20260901062059 68 290 3.0 10.0 0.00 0.01 0.00 64 1013.3
20260901061602 68 294 5.0 11.0 0.00 0.01 0.00 64 1013.2
20260901061059 68 278 5.0 11.0 0.00 0.01 0.00 64 1013.1
20260901060602 68 267 5.0 11.0 0.00 0.01 0.00 65 1013.1
20260901060056 68 273 5.0 11.0 0.00 0.01 0.00 65 1013.1
20260901055555 68 265 4.0 10.0 0.00 0.30 0.00 67 1013.0
20260901055054 67 220 4.0 10.0 0.00 0.30 0.00 69 1013.0
20260901054553 67 294 5.0 8.0 0.00 0.30 0.00 72 1013.0
20260901054053 66 286 3.0 9.0 0.00 0.30 0.00 74 1013.0
20260901053553 66 277 3.0 7.0 0.00 0.30 0.00 75 1012.9
20260901053057 66 268 3.0 6.0 0.00 0.30 0.00 76 1012.9
20260901052550 66 225 0.0 5.0 0.00 0.30 0.00 75 1012.4
20260901052049 66 211 2.0 5.0 0.00 0.30 0.00 75 1012.2
20260901051553 67 205 2.0 5.0 0.00 0.30 0.00 74 1012.2
20260901051048 67 197 2.0 5.0 0.00 0.30 0.00 73 1012.2
20260901050546 67 209 2.0 5.0 0.00 0.30 0.00 73 1012.1
20260901050045 67 199 2.0 5.0 0.00 0.30 0.00 72 1012.1
20260901045543 67 228 2.0 5.0 0.00 0.30 0.30 71 1012.0
20260901045044 68 234 2.0 6.0 0.00 0.30 0.30 71 1012.1
20260901044544 68 192 3.0 6.0 0.00 0.30 0.30 70 1012.1
20260901044044 68 213 3.0 7.0 0.00 0.30 0.30 70 1012.1
20260901043544 68 212 3.0 8.0 0.00 0.30 0.30 69 1012.0
20260901043046 69 221 3.0 8.0 0.00 0.30 0.30 68 1012.0
20260901042544 69 206 3.0 6.0 0.00 0.30 0.30 67 1012.0
20260901042043 70 211 3.0 6.0 0.00 0.30 0.30 67 1011.9
20260901041543 70 192 3.0 6.0 0.00 0.30 0.30 66 1011.9
20260901041043 70 184 2.0 6.0 0.00 0.30 0.30 66 1011.9
20260901040543 70 244 3.0 6.0 0.00 0.30 0.30 66 1011.9
20260901040042 70 190 1.0 6.0 0.00 0.30 0.30 65 1011.9
20260901035542 70 223 2.0 7.0 0.00 0.30 0.30 65 1011.9
20260901035043 70 217 3.0 7.0 0.00 0.30 0.30 65 1011.8
20260901034548 70 197 4.0 6.0 0.00 0.30 0.30 64 1011.9
20260901034041 71 194 3.0 6.0 0.00 0.30 0.30 63 1011.9
20260901033541 71 185 3.0 6.0 0.00 0.30 0.30 63 1011.8
20260901033044 71 219 2.0 6.0 0.00 0.30 0.30 62 1012.3
20260901032541 72 202 3.0 7.0 0.00 0.30 0.30 61 1011.9
20260901032040 72 202 3.0 8.0 0.00 0.30 0.30 61 1011.8
20260901031547 72 189 4.0 8.0 0.00 0.30 0.30 60 1011.9
20260901031041 73 197 3.0 7.0 0.00 0.30 0.30 59 1011.9
20260901030542 73 191 3.0 6.0 0.00 0.30 0.30 59 1011.8
20260901030041 73 194 3.0 6.0 0.00 0.30 0.30 58 1011.8
20260901025540 74 225 3.0 7.0 0.00 0.30 0.30 57 1011.9
20260901025040 74 215 1.0 7.0 0.00 0.30 0.30 57 1011.9
20260901024540 74 221 1.0 6.0 0.00 0.30 0.30 56 1011.9
20260901024044 74 230 3.0 6.0 0.00 0.30 0.30 55 1011.9
20260901023539 74 236 2.0 5.0 0.00 0.30 0.30 55 1011.8
20260901023041 74 229 0.0 3.0 0.00 0.30 0.30 54 1011.8
20260901022539 74 257 0.0 6.0 0.00 0.30 0.30 53 1011.7
20260901022039 75 190 3.0 9.0 0.00 0.30 0.30 52 1011.5
20260901021550 75 244 3.0 9.0 0.00 0.30 0.30 51 1011.5
20260901021042 75 197 3.0 7.0 0.00 0.30 0.30 49 1011.4
20260901020539 75 188 3.0 7.0 0.00 0.30 0.30 48 1011.3
20260901020038 76 200 3.0 7.0 0.00 0.30 0.30 47 1011.2
20260901015539 76 197 4.0 8.0 0.00 0.30 0.30 46 1011.1
20260901015038 77 177 4.0 8.0 0.00 0.30 0.30 46 1011.1
20260901014539 78 205 3.0 6.0 0.00 0.30 0.30 45 1011.0
20260901014037 78 191 3.0 6.0 0.00 0.30 0.30 44 1010.9
20260901013537 78 199 2.0 5.0 0.00 0.30 0.30 43 1010.8
20260901013055 79 223 2.0 7.0 0.00 0.30 0.30 43 1010.9
20260901012536 79 190 2.0 7.0 0.00 0.30 0.30 42 1010.8
20260901012040 79 216 4.0 8.0 0.00 0.30 0.30 42 1010.7
20260901011537 80 229 2.0 8.0 0.00 0.30 0.30 41 1010.7
20260901011036 80 213 3.0 7.0 0.00 0.30 0.30 41 1010.6
20260901010536 80 213 3.0 8.0 0.00 0.30 0.30 40 1010.7
20260901010047 81 211 2.0 7.0 0.00 0.30 0.30 39 1010.7
20260901005536 81 207 3.0 9.0 0.00 0.30 0.30 39 1010.6
20260901005035 81 222 2.0 9.0 0.00 0.30 0.30 39 1010.5
20260901004538 82 194 2.0 9.0 0.00 0.30 0.30 38 1010.6
20260901004035 82 199 3.0 10.0 0.00 0.30 0.30 38 1010.6
20260901003539 82 213 4.0 10.0 0.00 0.30 0.30 37 1010.6
20260901003035 82 216 3.0 13.0 0.00 0.30 0.30 37 1010.6
20260901002535 83 256 4.0 17.0 0.00 0.30 0.30 37 1010.5
20260901002035 83 184 5.0 17.0 0.00 0.30 0.30 36 1010.4
20260901001536 83 185 3.0 12.0 0.00 0.30 0.30 36 1010.4
20260901001034 83 217 4.0 12.0 0.00 0.30 0.30 36 1010.3
20260901000534 83 335 5.0 11.0 0.00 0.30 0.30 35 1010.3
20260901000034 84 227 4.0 13.0 0.00 0.30 0.30 35 1010.4
20260831235534 84 213 5.0 17.0 0.00 0.30 0.30 35 1010.4
20260831235035 84 198 6.0 17.0 0.00 0.30 0.30 35 1010.3
20260831234534 84 208 5.0 14.0 0.00 0.30 0.30 35 1010.3
20260831234035 84 329 6.0 14.0 0.00 0.30 0.30 34 1010.3
20260831233533 84 346 4.0 15.0 0.00 0.30 0.30 35 1010.3
20260831233032 84 209 3.0 11.0 0.00 0.30 0.30 35 1010.3
20260831232534 84 283 4.0 15.0 0.00 0.30 0.30 34 1010.4
20260831232034 85 213 6.0 19.0 0.00 0.30 0.30 33 1010.4
20260831231533 85 246 7.0 19.0 0.00 0.30 0.30 33 1010.5
20260831231034 85 211 3.0 15.0 0.00 0.30 0.30 34 1010.5